Powrót do katalogu

COSMOS 2251 DEB

AktywnyLEO
NORAD 37531·DEBRIS·🇷🇺 Russia

Wystrzelony Jun 16, 1993 z Plesetsk Cosmodrome

Loading…

Następne Przeloty (najbliższe 24 godziny)

TLE

NieaktualneSource: Space-Track

Epoka: Sep 4, 2026, 23:10 UTC

1 37531U 93036BNL 26247.96557344  .00004264  00000-0  72715-3 0  9995
2 37531  74.0024 110.7720 0035521 130.8074 229.6187 14.68897115739559

Śledź COSMOS 2251 DEB w czasie rzeczywistym z AllMySat

Download on the App Store